GEESAT 4-11

导读 | 豆包AI

GEESAT 4-11是中国于2025年8月8日发射的低轨商业卫星,隶属于吉利科技集团旗下时空道宇GeeSAT星座体系。该星座主打模块化量产路线,具备高弹性、高性能特性,GEESAT 4-11将与已组网卫星协同,服务于天地一体化信息网络建设,可为物联网、智能出行、地理测绘等领域提供天基支撑,助力中国商业低轨卫星星座的组网进程。

基本信息
目录编号:
65129
目录名称:
GEESAT 4-11
国际标识:
2025-170L
轨道中心:
EARTH
卫星名称:
GEESAT 4-11
卫星全名:
GEESAT 4-11
卫星状态:
在轨 (已飞行217 天)
发射日期:
2025-08-08 UTC
国别 :
中国 (CN)
星等 :
--
轨道信息
数据来源 国际轨道数据 AOE轨道数据
星历时间 2026-03-13T22:48:32+0800
9小时前
查看轨道信息
2026-03-14T03:00:00+0800
4小时前
查看轨道信息
半长轴 6995.475km 6995.475km
偏心率 0.0007189 0.0007131
轨道倾角 49.983° 49.984°
近地点辐角 88.264° 87.112°
升交点赤经 256.947° 256.141°
平近点角 271.912° 126.578°
近地点 612.308km 612.349km
远地点 622.368km 622.327km
周期 97.048分钟 97.048分钟
每日圈数 14.838056 14.838056
详细信息
使用方式:
暂无
2D轨道图
3D轨道图
轨道高度分析图
轨道倾角分析图
轨道综合分析图
查看轨道综合分析图